Location: Fort Worth, Tx
(32.7431°N, 97.3695°W)
Time: 22:23:10
(UTC-05:00)

Transit 4A - All Passes

Search period start: 28 February 2024 00:00
Search period end: 09 March 2024 00:00
Orbit: 869 x 973 km, 66.8° (Epoch: 28 February)

Date Brightness Start Highest point End Pass type
(mag) Time Alt. Az. Time Alt. Az. Time Alt. Az.
28 Feb - 00:53:37 10° S 00:59:18 37° ESE 01:04:52 10° NE night (unlit)
28 Feb - 02:40:14 10° WSW 02:45:37 30° WNW 02:50:54 10° N night (unlit)
28 Feb - 10:01:48 10° N 10:05:44 18° NE 10:09:38 10° E daylight
28 Feb - 11:46:44 10° NNW 11:52:27 60° WSW 11:58:08 10° S daylight
29 Feb - 01:02:08 10° S 01:08:15 59° ESE 01:14:14 10° NE night (unlit)
29 Feb - 02:50:26 10° W 02:54:56 21° NW 02:59:21 10° N night (unlit)
29 Feb - 10:10:09 10° N 10:15:04 27° NE 10:19:55 10° ESE daylight
29 Feb - 11:56:06 10° NW 12:01:23 37° WSW 12:06:40 10° S daylight
01 Mar - 01:11:01 10° SSW 01:17:17 89° ESE 01:23:24 10° NNE night (unlit)
01 Mar - 03:01:19 10° WNW 03:04:20 14° NW 03:07:19 10° NNW night (unlit)
01 Mar - 10:18:49 10° N 10:24:18 41° ENE 10:29:44 10° SE daylight
01 Mar - 12:05:48 10° NW 12:10:16 23° WSW 12:14:45 10° SSW daylight
01 Mar - 23:36:40 10° SE 23:40:34 17° ESE 23:44:25 10° ENE night (unlit)
02 Mar - 01:20:13 10° SW 01:26:22 60° WNW 01:32:23 10° NNE night (unlit)
02 Mar - 10:27:39 10° NNW 10:33:27 64° ENE 10:39:11 10° SE daylight
02 Mar - 12:16:10 10° WNW 12:19:06 14° WSW 12:22:02 10° SW daylight
02 Mar - 23:44:17 10° SSE 23:49:26 28° ESE 23:54:30 10° NE night (unlit)
03 Mar - 01:29:45 10° SW 01:35:31 40° WNW 01:41:12 10° N night (unlit)
03 Mar - 08:52:39 10° NNE 08:55:30 14° NE 08:58:21 10° ENE daylight
03 Mar - 10:36:40 10° NNW 10:42:30 82° WSW 10:48:18 10° SSE daylight
03 Mar - 23:52:30 10° S 23:58:21 43° ESE 00:04:04 10° NE night (unlit)
04 Mar - 01:39:38 10° WSW 01:44:46 27° NW 01:49:50 10° N night (unlit)
04 Mar - 09:00:38 10° N 09:04:55 21° NE 09:09:09 10° E daylight
04 Mar - 10:45:52 10° NW 10:51:30 52° WSW 10:57:05 10° S daylight
05 Mar - 00:01:09 10° SSW 00:07:20 67° ESE 00:13:22 10° NNE night (unlit)
05 Mar - 01:50:01 10° W 01:54:06 18° NW 01:58:09 10° N night (unlit)
05 Mar - 09:09:05 10° N 09:14:12 31° ENE 09:19:17 10° ESE daylight
05 Mar - 10:55:20 10° NW 11:00:25 32° WSW 11:05:30 10° S daylight
05 Mar - 22:28:33 10° SE 22:30:46 12° ESE 22:32:59 10° E night (unlit)
06 Mar - 00:10:08 10° SSW 00:16:21 80° WNW 00:22:27 10° NNE night (unlit)
06 Mar - 02:01:18 10° WNW 02:03:33 12° NW 02:05:47 10° NNW night (unlit)
06 Mar - 09:17:48 10° NNW 09:23:24 47° ENE 09:28:58 10° SE daylight
06 Mar - 11:05:10 10° WNW 11:09:16 20° WSW 11:13:24 10° SSW daylight
06 Mar - 22:35:14 10° SSE 22:39:35 20° ESE 22:43:52 10° ENE night (unlit)
07 Mar - 00:19:25 10° SW 00:25:28 53° WNW 00:31:24 10° NNE night (unlit)
07 Mar - 07:44:59 10° NE 07:45:13 10° NE 07:45:26 10° NE daylight
07 Mar - 09:26:41 10° NNW 09:32:31 74° ENE 09:38:19 10° SSE daylight
07 Mar - 11:16:01 10° W 11:18:05 12° WSW 11:20:09 10° WSW daylight
07 Mar - 22:43:04 10° SSE 22:48:28 32° ESE 22:53:45 10° NE night (unlit)
08 Mar - 00:29:03 10° WSW 00:34:39 35° WNW 00:40:09 10° N night (unlit)
08 Mar - 07:51:18 10° NNE 07:54:42 16° NE 07:58:04 10° E daylight
08 Mar - 09:35:46 10° NNW 09:41:33 72° WSW 09:47:20 10° SSE daylight
08 Mar - 22:51:27 10° S 22:57:24 49° ESE 23:03:14 10° NE night (unlit)
